TimeCST,TemperatureF,Dew PointF,Humidity,Sea Level PressureIn,VisibilityMPH,Wind Direction,Wind SpeedMPH,Gust SpeedMPH,PrecipitationIn,Events,Conditions,WindDirDegrees,DateUTC
12:10 AM,12.2,8.6,85,-9999,10.0,NW,6.9,-,N/A,,Mostly Cloudy,310,2012-12-13 06:10:00
12:34 AM,12.2,6.8,79,29.98,10.0,NW,5.8,-,N/A,Snow,Light Snow,320,2012-12-13 06:34:00
12:54 AM,12.2,6.8,79,29.98,10.0,NNW,5.8,-,N/A,,Mostly Cloudy,330,2012-12-13 06:54:00
1:14 AM,12.2,6.8,79,29.98,10.0,NW,5.8,-,N/A,Snow,Light Snow,320,2012-12-13 07:14:00
1:35 AM,12.2,6.8,79,29.99,10.0,North,5.8,-,N/A,,Overcast,350,2012-12-13 07:35:00
1:54 AM,10.4,6.8,85,29.99,5.0,NNW,5.8,-,N/A,Snow,Light Snow,340,2012-12-13 07:54:00
2:14 AM,10.4,6.8,85,30.00,10.0,NNW,4.6,-,N/A,,Mostly Cloudy,340,2012-12-13 08:14:00
2:35 AM,10.4,6.8,85,30.01,10.0,NNW,5.8,-,N/A,,Scattered Clouds,330,2012-12-13 08:35:00
2:54 AM,10.4,6.8,85,30.02,10.0,NW,5.8,-,N/A,Snow,Light Snow,320,2012-12-13 08:54:00
3:14 AM,10.4,6.8,85,30.03,10.0,NW,5.8,-,N/A,Snow,Light Snow,320,2012-12-13 09:14:00
3:35 AM,10.4,5.0,79,30.03,10.0,North,5.8,-,N/A,,Overcast,350,2012-12-13 09:35:00
3:54 AM,10.4,5.0,79,30.03,10.0,North,4.6,-,N/A,Snow,Light Snow,360,2012-12-13 09:54:00
4:14 AM,10.4,5.0,79,30.04,10.0,North,6.9,-,N/A,,Overcast,350,2012-12-13 10:14:00
4:35 AM,10.4,3.2,73,30.04,10.0,North,5.8,-,N/A,,Overcast,350,2012-12-13 10:35:00
4:54 AM,10.4,3.2,73,30.04,10.0,North,4.6,-,N/A,,Overcast,360,2012-12-13 10:54:00
5:14 AM,8.6,3.2,79,30.04,10.0,North,5.8,-,N/A,,Overcast,10,2012-12-13 11:14:00
5:35 AM,8.6,3.2,79,30.05,10.0,North,3.5,-,N/A,Snow,Light Snow,10,2012-12-13 11:35:00
5:54 AM,8.6,3.2,79,30.05,10.0,North,4.6,-,N/A,,Overcast,10,2012-12-13 11:54:00
6:14 AM,8.6,3.2,79,30.05,7.0,North,4.6,-,N/A,Snow,Light Snow,10,2012-12-13 12:14:00
6:35 AM,8.6,3.2,79,30.06,10.0,NNE,5.8,-,N/A,,Mostly Cloudy,20,2012-12-13 12:35:00
6:54 AM,8.6,3.2,79,30.06,10.0,NNE,5.8,-,N/A,,Mostly Cloudy,20,2012-12-13 12:54:00
7:15 AM,8.6,3.2,79,30.07,10.0,North,4.6,-,N/A,,Mostly Cloudy,360,2012-12-13 13:15:00
7:34 AM,8.6,3.2,79,30.07,10.0,NNE,4.6,-,N/A,,Mostly Cloudy,20,2012-12-13 13:34:00
7:54 AM,8.6,3.2,79,30.07,10.0,NNE,5.8,-,N/A,,Mostly Cloudy,20,2012-12-13 13:54:00
8:15 AM,8.6,3.2,79,30.08,10.0,North,5.8,-,N/A,,Scattered Clouds,350,2012-12-13 14:15:00
8:34 AM,8.6,3.2,79,30.09,10.0,North,4.6,-,N/A,,Scattered Clouds,360,2012-12-13 14:34:00
8:54 AM,8.6,3.2,79,30.08,7.0,North,4.6,-,N/A,,Mostly Cloudy,10,2012-12-13 14:54:00
9:15 AM,8.6,3.2,79,30.08,5.0,NNE,3.5,-,N/A,Snow,Light Snow,20,2012-12-13 15:15:00
9:34 AM,8.6,3.2,79,30.09,2.0,Calm,Calm,-,N/A,Snow,Light Snow,0,2012-12-13 15:34:00
9:54 AM,8.6,3.2,79,30.10,1.0,Calm,Calm,-,N/A,Snow,Light Snow,0,2012-12-13 15:54:00
10:15 AM,8.6,3.2,79,30.09,2.0,Calm,Calm,-,N/A,Snow,Light Snow,0,2012-12-13 16:15:00
10:34 AM,8.6,3.2,79,30.10,7.0,Calm,Calm,-,N/A,Snow,Light Snow,0,2012-12-13 16:34:00
10:54 AM,8.6,3.2,79,30.09,4.0,Calm,Calm,-,N/A,Snow,Light Snow,0,2012-12-13 16:54:00
11:15 AM,8.6,3.2,79,30.09,2.5,Calm,Calm,-,N/A,Snow,Light Snow,0,2012-12-13 17:15:00
11:34 AM,8.6,3.2,79,30.10,2.0,Calm,Calm,-,N/A,Snow,Light Snow,0,2012-12-13 17:34:00
11:54 AM,10.4,3.2,73,30.10,3.0,SW,4.6,-,N/A,Snow,Light Snow,220,2012-12-13 17:54:00
12:15 PM,10.4,3.2,73,30.09,3.0,Calm,Calm,-,N/A,Snow,Light Snow,0,2012-12-13 18:15:00
12:34 PM,10.4,3.2,73,30.09,3.0,South,3.5,-,N/A,Snow,Light Snow,180,2012-12-13 18:34:00
12:54 PM,10.4,5.0,79,30.08,1.8,Calm,Calm,-,N/A,Snow,Light Snow,0,2012-12-13 18:54:00
1:15 PM,10.4,5.0,79,30.08,1.0,Calm,Calm,-,N/A,Snow,Light Snow,0,2012-12-13 19:15:00
1:34 PM,12.2,6.8,79,30.08,2.0,Calm,Calm,-,N/A,Snow,Light Snow,0,2012-12-13 19:34:00
1:54 PM,12.2,6.8,79,30.08,4.0,Calm,Calm,-,N/A,Snow,Light Snow,0,2012-12-13 19:54:00
2:15 PM,12.2,6.8,79,30.07,2.0,Calm,Calm,-,N/A,Snow,Light Snow,0,2012-12-13 20:15:00
2:34 PM,12.2,6.8,79,30.07,4.0,Calm,Calm,-,N/A,Snow,Light Snow,0,2012-12-13 20:34:00
2:54 PM,12.2,6.8,79,30.07,4.0,Calm,Calm,-,N/A,Snow,Light Snow,0,2012-12-13 20:54:00
3:15 PM,12.2,6.8,79,30.07,1.8,SW,3.5,-,N/A,Snow,Light Snow,220,2012-12-13 21:15:00
3:34 PM,12.2,6.8,79,30.07,3.0,SW,3.5,-,N/A,Snow,Light Snow,230,2012-12-13 21:34:00
3:54 PM,12.2,6.8,79,30.07,2.5,Calm,Calm,-,N/A,Snow,Light Snow,0,2012-12-13 21:54:00
4:15 PM,12.2,8.6,85,30.08,0.8,Calm,Calm,-,N/A,Snow,Light Snow,0,2012-12-13 22:15:00
4:34 PM,12.2,8.6,85,30.06,1.0,Calm,Calm,-,N/A,Snow,Light Snow,0,2012-12-13 22:34:00
5:34 PM,12.2,8.6,85,30.07,10.0,Calm,Calm,-,N/A,,Mostly Cloudy,0,2012-12-13 23:34:00
5:54 PM,12.2,8.6,85,30.07,10.0,Calm,Calm,-,N/A,,Scattered Clouds,0,2012-12-13 23:54:00
7:14 PM,14.0,8.6,79,30.06,10.0,SE,3.5,-,N/A,,Mostly Cloudy,130,2012-12-14 01:14:00
7:34 PM,14.0,8.6,79,30.06,10.0,ESE,3.5,-,N/A,,Mostly Cloudy,120,2012-12-14 01:34:00
7:54 PM,15.8,8.6,73,30.06,10.0,Calm,Calm,-,N/A,,Mostly Cloudy,0,2012-12-14 01:54:00
8:14 PM,15.8,10.4,79,30.06,10.0,SE,4.6,-,N/A,,Overcast,140,2012-12-14 02:14:00
8:34 PM,15.8,10.4,79,30.05,10.0,SSE,6.9,-,N/A,,Overcast,150,2012-12-14 02:34:00
8:54 PM,15.8,10.4,79,30.05,10.0,SSE,4.6,-,N/A,,Overcast,160,2012-12-14 02:54:00
9:14 PM,17.6,10.4,73,30.06,10.0,South,5.8,-,N/A,,Overcast,170,2012-12-14 03:14:00
9:34 PM,17.6,10.4,73,30.06,10.0,South,4.6,-,N/A,,Overcast,180,2012-12-14 03:34:00
9:54 PM,17.6,12.2,79,30.06,10.0,South,6.9,-,N/A,,Overcast,180,2012-12-14 03:54:00
10:14 PM,17.6,12.2,79,30.06,10.0,South,6.9,-,N/A,,Overcast,190,2012-12-14 04:14:00
10:34 PM,17.6,12.2,79,30.05,10.0,South,6.9,-,N/A,,Overcast,180,2012-12-14 04:34:00
10:54 PM,17.6,12.2,79,30.06,10.0,South,6.9,-,N/A,,Mostly Cloudy,190,2012-12-14 04:54:00
11:14 PM,19.4,12.2,74,30.06,10.0,South,6.9,-,N/A,,Overcast,190,2012-12-14 05:14:00
11:34 PM,19.4,12.2,74,30.06,10.0,SSW,8.1,-,N/A,,Overcast,200,2012-12-14 05:34:00
11:54 PM,19.4,12.2,74,30.06,10.0,SSW,5.8,-,N/A,,Overcast,200,2012-12-14 05:54:00